1521183600.06,15247,8.94,72238.8,-5.13,-6.05,-5.97,0,*5A
1521183601.26,15248,8.94,72232.3,-5.13,-5.97,-6.05,0,*55
1521183602.45,15249,8.94,72234.3,-5.17,-6.09,-6.09,0,*58
1521183603.64,15250,8.94,72236.0,-5.13,-6.05,-6.05,0,*54
1521183604.84,15251,8.94,72234.5,-5.13,-5.97,-6.05,0,*5D
1521183606.03,15252,8.94,72236.8,-5.13,-5.97,-6.05,0,*5E
1521183607.23,15253,8.94,72244.0,-5.17,-6.09,-6.01,0,*5B
1521183608.42,15254,8.94,72240.0,-5.13,-6.05,-5.97,0,*58
1521183609.62,15255,8.94,72238.3,-5.17,-6.09,-6.01,0,*5D
1521183610.81,15256,8.94,72234.0,-5.13,-5.97,-5.97,0,*52
1521183612.0,15257,8.94,72236.5,-5.13,-6.05,-5.97,0,*5B
1521183613.2,15258,8.94,72234.3,-5.13,-5.97,-6.05,0,*54
1521183614.4,15259,8.94,72228.3,-5.17,-6.09,-6.01,0,*51
1521183615.59,15260,8.94,72230.8,-5.17,-6.09,-6.09,0,*53
1521183616.79,15261,8.94,72230.3,-5.17,-6.13,-6.09,0,*59
1521183617.98,15262,8.94,72230.8,-5.17,-6.13,-6.09,0,*5A
1521183619.17,15263,8.94,72226.3,-5.13,-6.05,-5.97,0,*5C
1521183620.37,15264,8.94,72226.0,-5.13,-6.09,-5.97,0,*57
1521183621.57,15265,8.94,72224.3,-5.13,-5.97,-6.05,0,*5A
1521183622.76,15266,8.94,72226.0,-5.17,-6.13,-6.01,0,*56
1521183623.96,15267,8.94,72224.5,-5.17,-6.09,-6.09,0,*54
1521183625.16,15268,8.94,72226.3,-5.17,-6.09,-6.01,0,*53
1521183626.35,15269,8.94,72224.3,-5.17,-6.01,-6.09,0,*52
1521183627.54,15270,8.94,72224.5,-5.13,-6.05,-6.05,0,*56
1521183628.74,15271,8.94,72218.0,-5.17,-6.13,-6.09,0,*58
1521183629.93,15272,8.94,72224.0,-5.13,-6.05,-5.97,0,*5C
1521183631.12,15273,8.94,72216.0,-5.13,-6.05,-6.05,0,*55
1521183632.31,15274,8.94,72212.5,-5.13,-6.05,-6.05,0,*52
1521183633.5,15275,8.94,72212.0,-5.17,-6.01,-6.01,0,*57
1521183634.69,15276,8.94,72210.8,-5.13,-6.05,-5.97,0,*58
1521183635.89,15277,8.94,72212.8,-5.17,-6.09,-6.09,0,*55
1521183637.09,15278,8.94,72214.0,-5.13,-5.97,-5.97,0,*5E
1521183638.28,15279,8.94,72212.0,-5.13,-6.05,-5.97,0,*57
1521183639.48,15280,8.94,72210.8,-5.13,-6.09,-6.01,0,*51
1521183640.67,15281,8.94,72204.8,-5.13,-6.09,-6.01,0,*50
1521183641.87,15282,8.94,72204.8,-5.17,-5.97,-6.05,0,*57
1521183643.06,15283,8.94,72206.8,-5.17,-6.05,-5.97,0,*56
1521183644.25,15284,8.94,72206.8,-5.13,-6.05,-5.97,0,*55
1521183645.44,15285,8.94,72206.5,-5.17,-5.97,-5.97,0,*58
1521183646.64,15286,8.94,72206.3,-5.13,-6.09,-6.01,0,*57
1521183647.84,15287,8.94,72206.0,-5.13,-6.09,-6.09,0,*5E
1521183649.03,15288,8.94,72206.8,-5.13,-5.97,-6.05,0,*59
1521183650.23,15289,8.94,72202.3,-5.17,-6.09,-6.09,0,*54
1521183651.42,15290,8.94,72202.8,-5.13,-6.05,-5.97,0,*50
1521183652.61,15291,8.94,72202.0,-5.13,-6.05,-6.05,0,*59
1521183653.81,15292,8.94,72198.0,-5.17,-6.09,-6.09,0,*5E
1521183655.0,15293,8.94,72192.8,-5.13,-6.05,-6.05,0,*5B
1521183656.19,15294,8.94,72194.5,-5.17,-6.01,-6.01,0,*58
1521183657.38,15295,8.94,72196.5,-5.13,-6.05,-5.97,0,*55
1521183658.58,15296,8.94,72188.8,-5.13,-6.05,-5.97,0,*56
1521183659.77,15297,8.94,72192.5,-5.13,-6.05,-5.97,0,*57
1521183660.96,15298,8.94,72194.3,-5.17,-6.09,-6.09,0,*54
1521183662.16,15299,8.94,72190.3,-5.13,-6.05,-5.97,0,*59
1521183663.35,15300,8.94,72188.5,-5.17,-6.09,-6.09,0,*54
1521183664.54,15301,8.94,72188.5,-5.13,-6.05,-5.97,0,*59
1521183665.73,15302,8.94,72190.3,-5.13,-6.05,-6.05,0,*52
1521183666.93,15303,8.94,72188.5,-5.13,-5.97,-6.05,0,*5B
1521183668.12,15304,8.94,72194.3,-5.13,-6.05,-6.05,0,*54
1521183669.32,15305,8.94,72196.5,-5.17,-6.09,-6.01,0,*59
1521183670.51,15306,8.94,72196.0,-5.13,-5.97,-5.97,0,*56
1521183671.71,15307,8.94,72200.8,-5.17,-6.01,-6.01,0,*53
1521183672.9,15308,8.94,72196.8,-5.13,-6.05,-6.05,0,*58
1521183674.09,15309,8.94,72196.8,-5.13,-6.05,-5.97,0,*51
1521183675.28,15310,8.94,72206.3,-5.13,-6.05,-5.97,0,*59
1521183676.47,15311,8.94,72202.0,-5.13,-6.05,-6.05,0,*50
1521183677.66,15312,8.94,72184.8,-5.13,-6.05,-5.97,0,*5B
1521183678.86,15313,8.94,72190.3,-5.13,-5.97,-6.05,0,*5A
1521183680.05,15314,8.94,72194.8,-5.13,-5.97,-5.97,0,*55
1521183681.24,15315,8.94,72202.0,-5.13,-6.05,-5.97,0,*5C
1521183682.43,15316,8.94,72190.8,-5.13,-6.05,-5.97,0,*5F
1521183683.62,15317,8.94,72200.0,-5.13,-6.05,-6.05,0,*56
1521183684.81,15318,8.94,72210.0,-5.13,-6.05,-6.05,0,*59
1521183686.01,15319,8.94,72206.8,-5.17,-6.13,-6.09,0,*57
1521183687.2,15320,8.94,72208.3,-5.13,-6.05,-5.97,0,*5A
1521183688.39,15321,8.94,72206.8,-5.17,-6.13,-6.01,0,*54
1521183689.59,15322,8.94,72198.8,-5.13,-6.05,-5.97,0,*58
1521183690.78,15323,8.94,72200.8,-5.13,-5.97,-6.05,0,*59
1521183691.97,15324,8.94,72202.5,-5.13,-6.05,-6.05,0,*56
1521183693.17,15325,8.94,72196.5,-5.17,-6.01,-6.01,0,*53
1521183694.36,15326,8.94,72198.3,-5.17,-6.09,-6.01,0,*58
1521183695.56,15327,8.94,72194.3,-5.17,-6.01,-6.01,0,*51
1521183696.75,15328,8.94,72196.8,-5.13,-5.97,-5.97,0,*5A
1521183697.94,15329,8.94,72188.8,-5.13,-6.05,-5.97,0,*53
1521183699.14,15330,8.94,72198.5,-5.17,-6.09,-6.01,0,*5F
1521183700.34,15331,8.94,72196.0,-5.13,-5.97,-6.05,0,*5A
1521183701.53,15332,8.94,72200.3,-5.13,-5.97,-6.05,0,*59
1521183702.72,15333,8.94,72200.5,-5.13,-6.05,-5.97,0,*58
1521183703.91,15334,8.94,72204.5,-5.13,-5.97,-6.05,0,*5F
1521183705.11,15335,8.94,72202.3,-5.17,-6.09,-6.09,0,*52
1521183706.31,15336,8.94,72210.3,-5.17,-6.09,-6.01,0,*59
1521183707.5,15337,8.94,72210.3,-5.13,-6.05,-5.97,0,*5C
1521183708.7,15338,8.94,72210.0,-5.17,-6.01,-6.09,0,*57
1521183709.89,15339,8.94,72220.0,-5.17,-6.01,-6.09,0,*56
1521183711.08,15340,8.94,72220.0,-5.13,-6.05,-6.05,0,*54
1521183712.27,15341,8.94,72224.5,-5.13,-5.97,-6.05,0,*5D
1521183713.47,15342,8.94,72226.3,-5.17,-6.01,-6.01,0,*52
1521183714.67,15343,8.94,72228.3,-5.17,-6.01,-6.01,0,*53
1521183715.86,15344,8.94,72228.5,-5.17,-6.09,-6.01,0,*5C
1521183717.05,15345,8.94,72234.0,-5.13,-6.05,-6.05,0,*51
1521183718.25,15346,8.94,72236.3,-5.13,-5.97,-6.05,0,*5A
1521183719.44,15347,8.94,72234.3,-5.17,-6.05,-6.05,0,*57
1521183720.63,15348,8.94,72234.5,-5.17,-6.05,-6.05,0,*58
1521183721.82,15349,8.94,72230.0,-5.13,-6.05,-5.97,0,*55
1521183723.02,15350,8.94,72218.8,-5.17,-6.09,-6.01,0,*59
1521183724.21,15351,8.94,72222.5,-5.17,-6.05,-5.97,0,*58
1521183725.4,15352,8.94,72226.0,-5.13,-6.05,-5.97,0,*5F
1521183726.59,15353,8.94,72228.8,-5.13,-6.01,-6.01,0,*56
1521183727.79,15354,8.94,72222.5,-5.17,-6.01,-6.01,0,*55
1521183728.99,15355,8.94,72228.8,-5.13,-6.09,-6.09,0,*50
1521183730.18,15356,8.94,72232.0,-5.13,-6.05,-5.97,0,*5B
1521183731.37,15357,8.94,72234.3,-5.17,-5.97,-5.97,0,*56
1521183732.57,15358,8.94,72228.5,-5.13,-6.09,-6.09,0,*5D
1521183733.76,15359,8.94,72230.8,-5.13,-5.97,-5.97,0,*5C
1521183734.95,15360,8.94,72224.8,-5.13,-6.05,-5.97,0,*5E
1521183736.15,15361,8.94,72222.5,-5.13,-5.97,-6.01,0,*5B
1521183737.34,15362,8.94,72212.5,-5.13,-5.97,-6.05,0,*5C
1521183738.54,15363,8.94,72218.0,-5.17,-6.09,-6.09,0,*51
1521183739.74,15364,8.94,72212.3,-5.17,-6.09,-6.01,0,*5E
1521183740.93,15365,8.94,72202.0,-5.17,-6.01,-6.01,0,*57
1521183742.13,15366,8.94,72210.5,-5.17,-6.01,-6.09,0,*5C
1521183743.32,15367,8.94,72210.8,-5.13,-6.05,-5.97,0,*59
1521183744.51,15368,8.94,72220.0,-5.17,-6.01,-6.01,0,*5A
1521183745.71,15369,8.94,72216.5,-5.13,-6.05,-6.05,0,*5F
1521183746.9,15370,8.94,72212.0,-5.17,-6.01,-6.09,0,*5B
1521183748.1,15371,8.94,72202.3,-5.17,-6.09,-6.01,0,*5A
1521183749.3,15372,8.94,72198.8,-5.17,-6.09,-6.01,0,*59
1521183750.49,15373,8.94,72200.8,-5.17,-6.13,-6.01,0,*53
1521183751.69,15374,8.94,72198.3,-5.17,-6.01,-6.01,0,*57
1521183752.88,15375,8.94,72196.3,-5.13,-5.97,-6.05,0,*5A
1521183754.07,15376,8.94,72202.8,-5.13,-6.05,-5.97,0,*59
1521183755.27,15377,8.94,72204.0,-5.17,-6.09,-6.01,0,*5C
1521183756.46,15378,8.94,72212.5,-5.13,-6.05,-6.05,0,*5F
1521183757.65,15379,8.94,72212.0,-5.13,-6.05,-5.97,0,*56
1521183758.84,15380,8.94,72218.0,-5.13,-6.05,-5.97,0,*50
1521183760.04,15381,8.94,72214.5,-5.17,-6.01,-6.01,0,*5D
1521183761.23,15382,8.94,72220.0,-5.13,-6.05,-6.05,0,*5A
1521183762.42,15383,8.94,72218.0,-5.17,-6.01,-6.09,0,*57
1521183763.62,15384,8.94,72216.0,-5.13,-5.97,-5.97,0,*5C
1521183764.81,15385,8.94,72216.8,-5.13,-6.05,-6.05,0,*5D
1521183766.0,15386,8.94,72216.5,-5.17,-6.09,-6.09,0,*5A
1521183767.2,15387,8.94,72214.3,-5.17,-6.09,-6.01,0,*53
1521183768.4,15388,8.94,72212.3,-5.13,-5.97,-6.05,0,*58
1521183769.59,15389,8.94,72198.0,-5.13,-5.97,-5.97,0,*51
1521183770.79,15390,8.94,72202.8,-5.17,-6.01,-6.01,0,*5D
1521183771.98,15391,8.94,72202.3,-5.13,-5.97,-6.05,0,*50
1521183773.17,15392,8.94,72214.0,-5.13,-6.05,-6.05,0,*5B
1521183774.36,15393,8.94,72208.0,-5.13,-6.05,-5.97,0,*52
1521183775.55,15394,8.94,72218.5,-5.13,-6.05,-5.97,0,*55
1521183776.75,15395,8.94,72226.5,-5.17,-6.09,-6.01,0,*50
1521183777.95,15396,8.94,72238.8,-5.13,-5.97,-5.97,0,*5F
1521183779.14,15397,8.94,72226.3,-5.13,-6.05,-5.97,0,*56
1521183780.33,15398,8.94,72220.8,-5.13,-6.05,-5.97,0,*59
1521183781.52,15399,8.94,72222.0,-5.13,-6.05,-6.05,0,*50
1521183782.71,15400,8.94,72216.3,-5.13,-5.97,-5.97,0,*57
1521183783.91,15401,8.94,72214.8,-5.13,-5.97,-5.97,0,*56
1521183785.1,15402,8.94,72214.3,-5.17,-6.09,-6.09,0,*51
1521183786.3,15403,8.94,72214.3,-5.13,-6.05,-6.05,0,*54
1521183787.49,15404,8.94,72202.5,-5.13,-6.05,-5.97,0,*5B
1521183788.68,15405,8.94,72210.0,-5.13,-6.05,-5.97,0,*5A
1521183789.87,15406,8.94,72202.8,-5.13,-6.05,-5.97,0,*59
1521183791.06,15407,8.94,72204.5,-5.13,-5.97,-5.97,0,*50
1521183792.26,15408,8.94,72216.0,-5.13,-5.97,-5.97,0,*5F
1521183793.45,15409,8.94,72222.8,-5.13,-6.05,-5.97,0,*56
1521183794.64,15410,8.94,72228.3,-5.13,-5.97,-5.97,0,*56
1521183795.84,15411,8.94,72240.0,-5.17,-6.01,-6.01,0,*53
1521183797.03,15412,8.94,72230.8,-5.17,-6.01,-6.01,0,*50
1521183798.23,15413,8.94,72226.8,-5.13,-5.97,-5.97,0,*55
1521183799.42,15414,8.94,72208.8,-5.13,-6.05,-6.05,0,*52
1521183800.61,15415,8.94,72222.5,-5.13,-6.05,-5.97,0,*5B
1521183801.8,15416,8.94,72226.0,-5.13,-6.05,-6.05,0,*50
1521183802.99,15417,8.94,72226.0,-5.13,-6.05,-5.97,0,*59
1521183804.18,15418,8.94,72224.8,-5.13,-6.05,-5.97,0,*56
1521183805.37,15419,8.94,72224.8,-5.13,-6.05,-6.05,0,*5F
1521183806.57,15420,8.94,72242.8,-5.13,-5.97,-6.05,0,*5D
1521183807.76,15421,8.94,72232.3,-5.13,-6.05,-5.97,0,*5C
1521183808.95,15422,8.94,72222.0,-5.13,-6.05,-5.97,0,*5F
1521183810.14,15423,8.94,72218.0,-5.13,-6.05,-6.05,0,*56
1521183811.33,15424,8.94,72218.3,-5.13,-6.05,-6.05,0,*51
1521183812.52,15425,8.94,72218.5,-5.13,-6.05,-5.97,0,*58
1521183813.71,15426,8.94,72204.0,-5.13,-6.05,-5.97,0,*5B
1521183814.9,15427,8.94,72214.3,-5.13,-6.05,-5.97,0,*5A
1521183816.1,15428,8.94,72228.3,-5.13,-5.97,-6.05,0,*55
1521183817.29,15429,8.94,72230.8,-5.13,-6.05,-6.05,0,*5C
1521183818.48,15430,8.94,72222.0,-5.13,-5.97,-6.05,0,*5C
1521183819.68,15431,8.94,72226.0,-5.13,-5.97,-5.97,0,*55
1521183820.87,15432,8.94,72234.0,-5.13,-6.09,-6.05,0,*5A
1521183822.06,15433,8.94,72246.0,-5.13,-6.05,-5.97,0,*5F
1521183823.26,15434,8.94,72242.5,-5.13,-5.97,-6.05,0,*58
1521183824.45,15435,8.94,72240.5,-5.13,-6.05,-5.97,0,*59
1521183825.64,15436,8.94,72236.5,-5.13,-5.97,-5.97,0,*52
1521183826.84,15437,8.94,72224.3,-5.13,-5.97,-5.97,0,*53
1521183828.03,15438,8.94,72232.3,-5.13,-6.05,-5.97,0,*54
1521183829.22,15439,8.94,72232.3,-5.13,-5.97,-6.05,0,*55
1521183830.41,15440,8.94,72224.0,-5.13,-6.05,-6.05,0,*53
1521183831.61,15441,8.94,72222.8,-5.13,-6.05,-5.97,0,*5A
1521183832.8,15442,8.94,72232.8,-5.17,-6.05,-5.97,0,*5D
1521183833.99,15443,8.94,72236.8,-5.13,-5.97,-5.97,0,*50
1521183835.18,15444,8.94,72236.3,-5.13,-6.05,-5.97,0,*5F
1521183836.38,15445,8.94,72248.3,-5.13,-5.97,-6.05,0,*5E
1521183837.59,15446,8.94,72246.3,-5.11,-6.05,-6.05,0,*57
1521183838.78,15447,8.94,72244.3,-5.17,-6.01,-6.01,0,*50
1521183839.98,15448,8.94,72242.8,-5.13,-5.97,-6.05,0,*53
1521183841.17,15449,8.94,72234.5,-5.13,-6.05,-6.05,0,*5A
1521183842.36,15450,8.94,72234.3,-5.13,-5.97,-5.97,0,*52
1521183843.55,15451,8.94,72238.8,-5.13,-6.05,-5.97,0,*5B
1521183844.74,15452,8.94,72222.0,-5.13,-6.05,-5.97,0,*58
1521183845.94,15453,8.94,72214.5,-5.13,-6.05,-5.97,0,*59
1521183847.13,15454,8.94,72218.3,-5.13,-5.97,-6.05,0,*5E
1521183848.35,15455,8.94,72222.5,-5.11,-5.97,-5.97,0,*55
1521183849.56,15456,8.94,72218.8,-5.11,-6.05,-5.97,0,*5E
1521183850.78,15457,8.94,72220.5,-5.11,-6.05,-6.05,0,*57
1521183851.99,15458,8.94,72222.3,-5.11,-5.97,-5.97,0,*58
1521183853.19,15459,8.94,72226.5,-5.13,-5.97,-5.97,0,*5B
1521183854.38,15460,8.94,72226.3,-5.13,-5.97,-6.05,0,*59
1521183855.58,15461,8.94,72226.0,-5.13,-5.97,-5.97,0,*50
1521183856.77,15462,8.94,72212.0,-5.13,-6.05,-5.97,0,*5B
1521183857.96,15463,8.94,72208.5,-5.13,-6.05,-5.97,0,*5A
1521183859.15,15464,8.94,72210.5,-5.13,-6.05,-5.97,0,*5D
1521183860.34,15465,8.94,72206.5,-5.13,-5.97,-5.97,0,*54
1521183861.54,15466,8.94,72204.5,-5.13,-5.97,-5.97,0,*57
1521183862.76,15467,8.94,72204.3,-5.11,-5.97,-5.97,0,*54
1521183863.97,15468,8.94,72218.5,-5.11,-6.05,-5.97,0,*53
1521183865.19,15469,8.94,72230.8,-5.11,-5.97,-6.05,0,*52
1521183866.4,15470,8.94,72228.0,-5.11,-6.05,-5.97,0,*5A
1521183867.65,15471,8.94,72228.0,-5.09,-5.93,-5.93,0,*5A
1521183868.87,15472,8.94,72228.8,-5.11,-5.97,-5.97,0,*50
1521183870.06,15473,8.94,72226.0,-5.13,-6.05,-5.97,0,*5B
1521183871.25,15474,8.94,72242.3,-5.13,-6.05,-5.97,0,*5C
1521183872.47,15475,8.94,72238.0,-5.11,-5.97,-5.97,0,*57
1521183873.68,15476,8.94,72234.8,-5.11,-6.05,-6.05,0,*54
1521183874.9,15477,8.94,72242.0,-5.11,-6.05,-5.97,0,*5D
1521183876.15,15478,8.94,72236.0,-5.09,-5.93,-5.93,0,*53
1521183877.37,15479,8.94,72230.0,-5.11,-5.97,-5.97,0,*5B
1521183878.58,15480,8.94,72228.0,-5.11,-5.97,-5.97,0,*5D
1521183879.8,15481,8.94,72244.8,-5.11,-6.05,-5.97,0,*54
1521183881.02,15482,8.94,72242.5,-5.09,-6.01,-5.93,0,*5E
1521183882.24,15483,8.94,72236.8,-5.11,-5.97,-5.97,0,*5E
1521183883.45,15484,8.94,72236.8,-5.11,-6.05,-5.97,0,*51
1521183884.67,15485,8.94,72238.0,-5.11,-5.97,-5.97,0,*58
1521183885.89,15486,8.94,72238.5,-5.09,-6.01,-5.93,0,*5A
1521183887.11,15487,8.94,72238.5,-5.11,-6.05,-5.97,0,*52
1521183888.32,15488,8.94,72244.0,-5.11,-5.97,-5.97,0,*55
1521183889.54,15489,8.94,72240.3,-5.11,-6.05,-5.97,0,*5C
1521183890.76,15490,8.94,72226.8,-5.11,-5.97,-5.97,0,*5C
1521183891.97,15491,8.94,72220.8,-5.11,-5.97,-5.97,0,*5D
1521183893.19,15492,8.94,72226.5,-5.11,-6.05,-5.97,0,*56
1521183894.4,15493,8.94,72234.3,-5.11,-6.05,-6.05,0,*5F
1521183895.61,15494,8.94,72238.0,-5.11,-6.05,-5.97,0,*50
1521183896.83,15495,8.94,72236.3,-5.11,-5.97,-6.05,0,*51
1521183898.04,15496,8.94,72224.0,-5.11,-6.05,-5.97,0,*52
1521183899.26,15497,8.94,72216.3,-5.11,-5.97,-5.97,0,*5B
1521183900.48,15498,8.94,72218.5,-5.11,-5.97,-5.97,0,*54
1521183901.69,15499,8.94,72216.0,-5.11,-6.05,-5.97,0,*5D
1521183902.91,15500,8.94,72228.3,-5.11,-6.05,-5.97,0,*5C
1521183904.12,15501,8.94,72226.3,-5.11,-5.97,-5.97,0,*55
1521183905.34,15502,8.94,72226.5,-5.11,-5.97,-5.97,0,*56
1521183906.56,15503,8.94,72222.5,-5.11,-5.97,-6.05,0,*5F
1521183907.77,15504,8.94,72220.3,-5.11,-6.05,-5.97,0,*58
1521183908.99,15505,8.94,72214.5,-5.11,-5.97,-5.97,0,*51
1521183910.18,15506,8.94,72214.0,-5.09,-6.01,-6.01,0,*5B
1521183911.38,15507,8.94,72218.0,-5.09,-6.01,-6.01,0,*5A
1521183912.6,15508,8.94,72220.8,-5.11,-5.97,-6.05,0,*54
1521183913.81,15509,8.94,72226.0,-5.11,-5.97,-5.97,0,*5D
1521183915.03,15510,8.94,72224.8,-5.11,-6.05,-6.05,0,*55
1521183916.24,15511,8.94,72216.5,-5.11,-5.97,-5.97,0,*54
1521183917.46,15512,8.94,72230.5,-5.11,-6.05,-5.97,0,*5F
1521183918.67,15513,8.94,72234.3,-5.11,-6.05,-5.97,0,*5E
1521183919.9,15514,8.94,72236.8,-5.09,-6.01,-5.93,0,*50
1521183921.11,15515,8.94,72244.0,-5.11,-6.05,-5.97,0,*58
1521183922.35,15516,8.94,72240.5,-5.11,-6.05,-5.93,0,*5F
1521183923.57,15517,8.94,72238.0,-5.11,-6.05,-5.97,0,*5A
1521183924.78,15518,8.94,72234.8,-5.11,-6.05,-5.97,0,*55
1521183926.01,15519,8.94,72236.0,-5.09,-5.93,-6.01,0,*5D
1521183927.22,15520,8.94,72234.8,-5.11,-5.97,-6.05,0,*5E
1521183928.44,15521,8.94,72220.5,-5.11,-5.97,-6.05,0,*5F
1521183929.66,15522,8.94,72220.3,-5.09,-6.01,-5.93,0,*55
1521183930.88,15523,8.94,72220.5,-5.11,-5.97,-6.05,0,*5D
1521183932.1,15524,8.94,72234.3,-5.11,-5.97,-6.05,0,*5A
1521183933.31,15525,8.94,72226.8,-5.11,-6.05,-5.97,0,*5B
1521183934.52,15526,8.94,72218.3,-5.11,-6.05,-5.97,0,*58
1521183935.74,15527,8.94,72228.3,-5.11,-5.97,-5.97,0,*51
1521183936.96,15528,8.94,72222.8,-5.11,-5.97,-5.97,0,*5E
1521183938.18,15529,8.94,72226.8,-5.09,-6.01,-5.93,0,*5E
1521183939.4,15530,8.94,72228.3,-5.11,-5.97,-6.05,0,*5F
1521183940.61,15531,8.94,72230.0,-5.11,-6.05,-5.97,0,*5E
1521183941.8,15532,8.94,72236.3,-5.09,-6.05,-5.97,0,*54
1521183943.05,15533,8.94,72236.8,-5.11,-5.97,-5.93,0,*50
1521183944.27,15534,8.94,72238.0,-5.11,-6.05,-5.97,0,*5B
1521183945.49,15535,8.94,72230.3,-5.09,-6.01,-5.93,0,*53
1521183946.74,15536,8.94,72224.8,-5.09,-5.93,-5.93,0,*58
1521183947.97,15537,8.94,72218.5,-5.09,-6.01,-5.93,0,*51
1521183949.19,15538,8.94,72246.5,-5.09,-6.01,-5.93,0,*5E
1521183950.41,15539,8.94,72256.3,-5.09,-6.01,-5.93,0,*5F
1521183951.63,15540,8.94,72238.0,-5.11,-5.97,-5.97,0,*50
1521183952.85,15541,8.94,72220.0,-5.11,-5.97,-5.97,0,*51
1521183954.06,15542,8.94,72218.8,-5.11,-6.05,-5.97,0,*5A
1521183955.28,15543,8.94,72214.0,-5.11,-6.05,-5.97,0,*5B
1521183956.49,15544,8.94,72216.3,-5.11,-5.97,-5.97,0,*54
1521183957.75,15545,8.94,72212.3,-5.09,-5.93,-5.93,0,*5C
1521183958.94,15546,8.94,72216.8,-5.09,-5.97,-5.97,0,*5F
1521183960.13,15547,8.94,72210.5,-5.09,-6.05,-5.97,0,*56
1521183961.35,15548,8.94,72208.5,-5.11,-5.97,-5.97,0,*58
1521183962.57,15549,8.94,72202.0,-5.09,-6.01,-5.93,0,*58
1521183963.79,15550,8.94,72200.8,-5.11,-5.97,-5.97,0,*51
1521183965.01,15551,8.94,72202.5,-5.11,-5.97,-5.97,0,*50
1521183966.22,15552,8.94,72204.5,-5.11,-6.05,-5.97,0,*5B
1521183967.44,15553,8.94,72204.0,-5.11,-5.97,-5.97,0,*52
1521183968.65,15554,8.94,72218.8,-5.11,-5.97,-5.97,0,*55
1521183969.87,15555,8.94,72222.5,-5.11,-6.05,-6.05,0,*54
1521183971.12,15556,8.94,72222.3,-5.09,-5.93,-5.93,0,*5E
1521183972.33,15557,8.94,72224.5,-5.11,-6.05,-5.97,0,*5E
1521183973.56,15558,8.94,72230.8,-5.09,-5.93,-6.01,0,*58
1521183974.81,15559,8.94,72230.0,-5.09,-5.93,-5.93,0,*51
1521183976.02,15560,8.94,72228.3,-5.11,-6.05,-5.97,0,*5A
1521183977.28,15561,8.94,72218.3,-5.09,-5.93,-5.93,0,*5A
1521183978.5,15562,8.94,72206.8,-5.09,-5.93,-6.01,0,*51
1521183979.75,15563,8.94,72210.5,-5.09,-5.93,-5.93,0,*58
1521183981.0,15564,8.94,72236.8,-5.09,-5.93,-5.93,0,*5F
1521183982.22,15565,8.94,72220.3,-5.11,-5.97,-5.97,0,*57
1521183983.44,15566,8.94,72222.0,-5.11,-6.05,-5.97,0,*5C
1521183984.65,15567,8.94,72214.8,-5.11,-5.97,-6.05,0,*5D
1521183985.87,15568,8.94,72204.3,-5.11,-6.05,-6.05,0,*5A
1521183987.08,15569,8.94,72216.8,-5.11,-5.97,-5.97,0,*5B
1521183988.31,15570,8.94,72222.3,-5.09,-6.01,-5.93,0,*52
1521183989.53,15571,8.94,72238.8,-5.09,-6.01,-5.93,0,*53
1521183990.78,15572,8.94,72230.8,-5.09,-5.93,-5.93,0,*58
1521183991.98,15573,8.94,72226.0,-5.09,-6.01,-6.01,0,*59
1521183993.2,15574,8.94,72220.5,-5.09,-6.01,-5.93,0,*56
1521183994.43,15575,8.94,72224.5,-5.09,-6.01,-5.93,0,*57
1521183995.64,15576,8.94,72226.3,-5.11,-5.97,-5.97,0,*55
1521183996.86,15577,8.94,72222.0,-5.11,-6.05,-5.97,0,*5C
1521183998.11,15578,8.94,72222.5,-5.09,-5.93,-5.93,0,*52
1521183999.3,15579,8.94,72224.5,-5.09,-5.97,-6.05,0,*5B
1521184000.49,15580,8.94,72228.8,-5.09,-6.05,-6.05,0,*55
1521184001.72,15581,8.94,72234.0,-5.09,-6.01,-5.93,0,*5C
1521184002.94,15582,8.94,72236.0,-5.09,-6.01,-5.93,0,*5F
1521184004.19,15583,8.94,72228.3,-5.09,-5.93,-5.93,0,*56
1521184005.41,15584,8.94,72230.0,-5.11,-5.97,-5.97,0,*58
1521184006.6,15585,8.94,72234.8,-5.09,-5.97,-5.97,0,*50
1521184007.86,15586,8.94,72220.5,-5.09,-5.93,-5.93,0,*53
1521184009.08,15587,8.94,72236.3,-5.09,-6.01,-5.93,0,*5A
1521184010.3,15588,8.94,72232.0,-5.11,-5.97,-5.97,0,*54
1521184011.55,15589,8.94,72230.0,-5.09,-5.93,-5.93,0,*5C
1521184012.8,15590,8.94,72230.0,-5.09,-5.93,-5.93,0,*54
1521184014.05,15591,8.94,72230.0,-5.07,-5.97,-5.89,0,*54
1521184015.3,15592,8.94,72230.0,-5.09,-5.93,-5.93,0,*56
1521184016.56,15593,8.94,72236.0,-5.09,-5.93,-5.93,0,*57
1521184017.78,15594,8.94,72232.5,-5.09,-6.01,-5.93,0,*58
1521184019.03,15595,8.94,72224.5,-5.09,-5.93,-5.93,0,*51
1521184020.28,15596,8.94,72226.8,-5.09,-5.93,-5.93,0,*52
1521184021.51,15597,8.94,72222.0,-5.09,-6.01,-5.93,0,*5B
1521184022.73,15598,8.94,72212.3,-5.09,-6.01,-5.93,0,*54
1521184023.93,15599,8.94,72206.3,-5.09,-6.01,-6.01,0,*5D
1521184025.18,15600,8.94,72202.8,-5.09,-5.93,-5.93,0,*5E
1521184026.4,15601,8.94,72212.5,-5.09,-5.93,-6.01,0,*57
1521184027.63,15602,8.94,72216.0,-5.09,-6.01,-5.93,0,*54
1521184028.87,15603,8.94,72222.5,-5.07,-5.89,-5.97,0,*5C
1521184030.14,15604,8.94,72224.8,-5.07,-5.89,-5.89,0,*54
1521184031.37,15605,8.94,72234.0,-5.09,-6.01,-5.93,0,*53
1521184032.62,15606,8.94,72228.8,-5.09,-5.93,-5.93,0,*58
1521184033.9,15607,8.94,72224.0,-5.07,-5.89,-5.89,0,*57
1521184035.15,15608,8.94,72222.3,-5.09,-5.93,-5.93,0,*56
1521184036.39,15609,8.94,72226.0,-5.07,-5.89,-5.97,0,*56
1521184037.67,15610,8.94,72216.0,-5.07,-5.89,-5.89,0,*51
1521184038.94,15611,8.94,72210.0,-5.07,-5.89,-5.89,0,*50
1521184040.19,15612,8.94,72206.0,-5.09,-5.93,-5.93,0,*5D
1521184041.45,15613,8.94,72210.3,-5.09,-5.93,-5.93,0,*5C
1521184042.64,15614,8.94,72212.5,-5.09,-5.97,-5.97,0,*5B
1521184043.83,15615,8.94,72218.3,-5.09,-6.01,-6.01,0,*5A
1521184045.09,15616,8.94,72214.3,-5.09,-5.93,-5.93,0,*59
1521184046.34,15617,8.94,72220.0,-5.07,-5.97,-5.89,0,*59
1521184047.59,15618,8.94,72218.8,-5.09,-5.93,-5.93,0,*57
1521184048.81,15619,8.94,72212.0,-5.09,-5.93,-6.01,0,*5E
1521184050.06,15620,8.94,72216.8,-5.09,-5.93,-5.93,0,*5C
1521184051.31,15621,8.94,72210.8,-5.07,-5.97,-5.89,0,*5C
1521184052.59,15622,8.94,72214.3,-5.07,-5.89,-5.89,0,*50
1521184053.86,15623,8.94,72206.5,-5.07,-5.89,-5.89,0,*51
1521184055.11,15624,8.94,72214.8,-5.07,-5.97,-5.89,0,*59
1521184056.36,15625,8.94,72222.0,-5.07,-5.97,-5.89,0,*58
1521184057.61,15626,8.94,72210.3,-5.05,-5.89,-5.89,0,*56
1521184058.84,15627,8.94,72226.3,-5.05,-5.97,-5.89,0,*58
1521184060.12,15628,8.94,72216.0,-5.07,-5.89,-5.89,0,*5A
1521184061.35,15629,8.94,72208.5,-5.05,-5.97,-5.89,0,*56
1521184062.62,15630,8.94,72214.3,-5.07,-5.89,-5.89,0,*53
1521184063.9,15631,8.94,72210.5,-5.07,-5.89,-5.89,0,*52
1521184065.12,15632,8.94,72206.5,-5.05,-5.97,-5.89,0,*5C
1521184066.4,15633,8.94,72212.5,-5.07,-5.89,-5.89,0,*50
1521184067.67,15634,8.94,72204.5,-5.07,-5.89,-5.89,0,*57
1521184068.92,15635,8.94,72212.3,-5.07,-5.89,-5.97,0,*59
1521184070.19,15636,8.94,72214.8,-5.07,-5.89,-5.89,0,*55
1521184071.44,15637,8.94,72206.3,-5.07,-5.89,-5.97,0,*5B
1521184072.71,15638,8.94,72208.5,-5.07,-5.89,-5.89,0,*5B
1521184073.93,15639,8.94,72218.5,-5.07,-5.97,-5.97,0,*5A
1521184075.18,15640,8.94,72216.3,-5.07,-5.97,-5.89,0,*5B
1521184076.4,15641,8.94,72214.0,-5.05,-5.89,-5.97,0,*58
1521184077.64,15642,8.94,72218.8,-5.07,-5.89,-5.97,0,*59
1521184078.92,15643,8.94,72222.0,-5.07,-5.89,-5.89,0,*57
1521184080.19,15644,8.94,72218.5,-5.07,-5.89,-5.89,0,*50
1521184081.44,15645,8.94,72224.8,-5.07,-5.97,-5.89,0,*5E
1521184082.72,15646,8.94,72220.0,-5.07,-5.89,-5.89,0,*52
1521184083.99,15647,8.94,72222.5,-5.07,-5.89,-5.89,0,*53
1521184085.25,15648,8.94,72224.3,-5.05,-5.89,-5.89,0,*5E
1521184086.49,15649,8.94,72216.5,-5.07,-5.97,-5.89,0,*52
1521184087.77,15650,8.94,72224.5,-5.07,-5.89,-5.89,0,*55
1521184089.02,15651,8.94,72218.8,-5.05,-5.89,-5.89,0,*56
1521184090.3,15652,8.94,72228.8,-5.07,-5.89,-5.89,0,*57
1521184091.55,15653,8.94,72216.5,-5.05,-5.89,-5.89,0,*54
1521184092.83,15654,8.94,72206.3,-5.07,-5.89,-5.89,0,*51
1521184094.1,15655,8.94,72210.5,-5.07,-5.89,-5.89,0,*50
1521184095.38,15656,8.94,72218.3,-5.07,-5.89,-5.89,0,*53
1521184096.63,15657,8.94,72220.0,-5.05,-5.89,-5.89,0,*50
1521184097.88,15658,8.94,72226.8,-5.05,-5.89,-5.89,0,*5F
1521184099.14,15659,8.94,72228.5,-5.05,-5.89,-5.89,0,*5E
1521184100.39,15660,8.94,72238.0,-5.07,-5.97,-5.89,0,*59
1521184101.66,15661,8.94,72228.8,-5.07,-5.89,-5.89,0,*57
1521184102.91,15662,8.94,72232.3,-5.07,-5.97,-5.89,0,*5B
1521184104.19,15663,8.94,72236.0,-5.07,-5.89,-5.89,0,*55
1521184105.43,15664,8.94,72240.0,-5.07,-5.97,-5.89,0,*5D
1521184106.71,15665,8.94,72246.0,-5.07,-5.89,-5.89,0,*53
1521184107.93,15666,8.94,72238.0,-5.05,-5.89,-5.97,0,*5D
1521184109.21,15667,8.94,72232.8,-5.07,-5.89,-5.89,0,*51